Location: Codford Saint Peter
(51.1597°N, 2.0531°W)
Time: 17:24:30
(UTC+00:00)

Envisat - Pass Details

Date: 31 January 2022
Orbit: 764 x 765 km, 98.2° (Epoch: 19 May)

Event Time Altitude Azimuth Distance (km) Brightness Sun altitude
Rises 04:29:32 0° 19° (NNE) 3,244 6.6 -30.9°
Reaches altitude 10° 04:32:01 10° 28° (NNE) 2,313 5.9 -30.5°
Maximum altitude 04:36:46 39° 96° (E) 1,143 4.3 -29.8°
Drops below altitude 10° 04:41:30 10° 165° (SSE) 2,298 5.5 -29.1°
Sets 04:43:56 0° 174° (S) 3,220 6.2 -28.7°
